Wind_Speed
31 30 28 27 28 28 27 27 27 29 31 30 30 30 25 19 20 21 20 21 20 20 20 19 19 19 18 17 16 15 15 15 14 14 14 14 14 14 13 14 13 13 13 8 5 9 15 17 17 14 12 13 13 15 17 15 15 13 12 10 6 4 4 4 3 0 3 3 6 15 23 21 17 15 14 14 13 11 10 9 10 9 8 9 8
32 31 29 29 29 29 29 28 29 30 31 29 28 28 24 20 20 20 21 22 22 20 20 19 18 18 17 16 15 14 14 15 15 15 14 14 14 14 14 14 13 13 14 9 4 6 10 14 15 13 12 15 17 18 16 13 12 12 11 10 8 5 6 5 2 1 2 1 9 19 22 17 16 15 15 15 12 11 11 9 8 7 7 8 7
33 31 30 31 31 30 31 30 30 31 30 27 27 28 26 23 21 21 22 22 21 20 19 19 19 18 17 16 15 14 14 15 16 16 15 14 14 14 14 14 13 13 11 8 7 9 10 9 11 12 14 18 18 15 12 9 9 8 9 11 9 7 7 7 5 4 5 5 8 17 20 17 15 14 12 10 7 8 11 11 7 4 6 9 10
32 32 31 31 32 32 31 31 31 30 28 26 28 29 27 25 23 22 22 20 20 20 18 18 18 18 17 16 15 15 15 15 15 15 14 14 13 13 13 13 13 12 10 7 6 7 9 9 11 12 15 16 13 10 9 10 8 6 7 9 9 8 7 7 7 6 6 7 8 10 15 15 12 10 8 6 6 7 9 9 6 4 6 9 9
32 32 33 31 31 33 32 31 30 29 28 27 29 29 28 26 24 23 21 20 19 18 17 17 17 16 16 15 15 15 15 14 14 14 14 13 12 11 11 10 10 9 8 8 6 5 7 11 13 13 13 13 11 9 8 8 7 5 5 7 8 7 6 4 5 5 4 4 7 7 9 10 7 5 5 7 10 9 6 5 4 5 5 5 4
33 32 32 31 31 33 33 33 31 28 27 28 28 29 28 27 25 24 22 20 19 18 18 17 16 15 15 15 15 14 14 14 14 13 13 12 11 10 8 7 6 6 6 6 4 6 9 11 13 14 14 13 12 10 9 8 8 7 7 6 5 6 7 5 5 5 4 4 7 8 8 7 5 6 7 10 11 9 7 8 8 8 6 4 5
33 31 30 31 32 33 33 32 31 29 27 28 29 29 28 29 28 26 24 22 20 19 18 16 14 13 14 14 15 14 14 14 13 11 11 10 9 8 6 4 4 4 6 6 5 7 10 11 12 14 15 13 11 11 12 11 10 10 10 8 6 7 7 6 5 5 4 4 6 9 10 8 8 8 6 6 7 6 5 7 8 11 11 10 10
32 30 29 30 31 31 32 32 31 30 28 29 31 29 28 30 29 24 23 22 20 19 18 15 14 13 13 14 15 14 13 13 12 11 10 9 8 6 3 3 5 6 7 8 9 11 12 12 12 14 14 12 12 13 14 13 12 12 11 9 9 8 7 6 6 5 6 6 6 6 10 10 9 9 6 3 4 3 3 7 9 9 13 15 14
30 29 28 28 30 30 31 30 30 29 27 29 30 27 26 27 25 20 18 17 17 17 16 14 13 13 13 14 14 14 13 12 12 12 11 9 9 7 5 5 6 7 8 11 13 13 13 12 12 12 12 12 13 13 13 12 12 13 12 10 8 9 9 8 8 7 8 11 10 7 10 10 9 12 10 7 5 3 4 10 13 10 8 10 14
28 27 27 27 29 29 29 29 28 27 27 28 29 26 24 24 22 18 15 13 14 16 14 13 14 14 14 14 14 13 13 11 11 11 10 9 9 8 7 6 5 7 10 12 13 13 11 11 11 11 12 12 12 12 12 13 12 11 11 9 7 9 8 8 9 8 8 10 9 6 8 8 8 12 12 10 10 8 6 6 6 5 8 5 9
26 27 26 26 28 28 27 28 27 27 27 29 29 25 24 24 22 19 17 16 17 17 14 13 14 14 14 14 13 13 13 11 10 10 9 8 8 7 6 5 5 8 11 11 13 13 11 10 12 12 13 13 12 12 12 11 11 10 10 8 7 6 3 3 6 5 3 4 5 6 6 7 8 10 11 12 11 10 7 4 3 2 9 6 6
25 25 25 26 27 27 27 26 25 26 29 31 30 26 26 25 23 20 20 20 20 19 16 14 13 14 14 13 13 13 13 12 11 11 10 9 8 6 6 7 8 10 11 11 14 14 11 11 13 13 12 13 12 12 11 9 8 8 7 7 6 4 2 3 4 3 3 3 2 1 4 7 8 7 10 14 13 10 8 4 1 2 7 5 5
24 24 24 26 26 26 27 26 25 26 30 33 31 28 27 25 23 21 20 19 18 17 15 13 12 15 14 14 13 14 13 13 13 12 10 11 11 7 7 10 11 11 13 14 14 14 12 12 13 12 12 12 11 11 10 7 7 6 6 5 4 4 4 2 2 3 4 5 7 8 7 3 5 6 5 13 14 11 8 5 3 4 5 2 9
23 23 24 25 25 26 27 26 25 26 27 28 26 25 25 24 22 21 20 18 16 14 13 12 14 16 15 14 14 14 14 13 13 11 8 11 13 11 10 12 12 12 14 15 14 14 13 13 13 11 11 11 10 10 10 8 7 6 4 4 3 3 4 4 3 1 1 4 6 9 11 9 12 13 10 11 12 11 8 5 5 6 4 6 10
22 22 24 25 25 26 25 25 26 26 25 26 25 25 24 23 22 21 20 18 16 14 13 14 17 18 16 15 15 15 14 12 9 7 7 13 16 14 13 13 13 13 14 15 14 13 12 12 11 9 9 10 10 9 9 8 7 6 6 6 6 4 2 2 2 2 1 5 7 9 10 10 9 11 11 10 10 9 7 6 7 6 5 8 8
21 21 22 24 25 25 24 25 27 26 26 26 26 26 25 24 23 22 20 18 16 14 14 16 19 19 16 15 15 14 12 9 6 6 13 19 18 15 14 14 14 14 14 14 14 12 11 10 10 9 9 9 10 8 8 8 8 8 8 8 8 6 3 3 2 1 2 5 7 8 9 9 7 7 7 6 6 7 6 6 6 5 4 6 7
21 20 21 22 23 23 23 24 27 27 27 27 26 26 25 25 23 22 21 19 16 14 16 19 19 18 16 15 14 14 11 7 5 11 20 21 17 15 15 15 14 14 14 13 13 12 10 9 10 12 11 10 11 9 9 10 9 9 10 11 10 7 5 4 3 2 2 3 5 6 6 6 5 4 3 3 4 6 7 6 5 3 2 2 6
21 21 20 20 22 23 23 23 25 27 28 28 26 25 25 23 22 21 21 19 17 17 20 20 18 17 17 15 13 13 10 7 9 18 24 21 17 15 15 16 15 14 13 13 13 13 10 8 10 12 11 10 9 9 10 12 9 9 13 14 12 8 5 4 3 3 3 3 4 4 4 3 3 4 4 4 4 5 8 8 7 6 7 6 9
21 21 20 20 22 23 23 23 24 26 27 27 23 22 21 19 18 19 19 18 19 21 21 19 18 17 17 15 13 12 10 8 14 23 25 20 16 14 15 17 17 15 14 13 13 13 11 9 9 9 8 7 7 9 13 13 8 8 12 13 12 10 6 5 5 5 5 6 6 7 7 7 6 7 7 7 7 7 8 9 9 9 10 10 10
20 20 19 20 22 22 22 22 23 23 25 24 21 20 19 17 17 18 19 21 22 20 19 18 17 17 16 14 13 11 9 11 18 24 24 19 15 13 12 14 16 16 15 15 15 13 11 10 9 7 5 4 7 13 15 12 6 7 11 12 14 12 9 8 9 9 10 11 12 12 11 10 9 9 8 8 8 9 8 8 9 10 11 13 13
21 20 19 20 21 21 20 21 20 20 23 25 24 23 22 21 22 23 23 22 20 18 18 18 18 17 15 13 11 9 7 11 20 24 22 19 15 12 11 11 12 14 15 15 16 14 11 10 9 6 4 4 10 16 14 9 7 10 12 14 15 14 12 13 13 13 13 14 14 13 11 9 8 8 8 7 8 9 9 9 9 9 10 12 13
20 19 19 20 20 19 19 20 19 17 19 22 23 22 22 23 24 22 20 18 17 17 18 18 18 17 13 10 11 9 6 10 20 24 21 19 16 11 10 10 10 11 12 13 15 16 12 9 9 7 5 8 14 15 10 6 7 10 11 14 16 15 14 15 14 12 13 14 14 12 10 9 8 8 7 7 8 9 9 10 9 9 9 8 8
19 18 18 19 19 19 19 19 17 15 16 19 19 18 18 19 19 17 16 17 17 17 18 18 17 15 13 12 13 11 7 8 18 23 20 17 16 11 8 7 8 9 10 12 16 17 10 7 9 9 9 12 15 13 9 7 9 11 13 16 18 17 14 13 12 11 11 13 14 12 10 10 10 8 8 8 9 8 8 8 9 8 7 6 7
19 17 17 19 20 20 19 17 15 15 16 18 18 17 15 15 15 15 16 18 17 17 18 18 17 14 14 15 15 13 10 9 14 20 19 16 14 12 8 6 6 8 9 12 17 17 11 9 12 12 13 15 15 13 10 9 11 14 16 17 18 17 14 12 11 10 9 10 11 10 10 11 11 10 10 9 7 6 6 7 7 6 5 5 6
20 19 19 21 21 20 18 16 16 16 16 16 17 16 13 12 12 13 15 16 17 17 17 16 15 16 17 17 16 14 12 10 13 16 17 15 13 11 8 5 5 6 7 11 17 17 13 13 15 15 14 15 15 13 10 9 12 14 15 16 16 13 11 12 11 11 12 10 10 10 11 11 11 11 9 6 5 6 6 4 4 3 3 3 4
23 21 20 19 19 19 20 20 19 17 16 15 15 13 11 11 10 9 11 13 15 16 15 15 15 17 17 15 14 13 12 12 15 17 16 15 13 12 9 6 5 6 8 12 16 17 16 17 17 17 16 15 14 12 11 11 13 13 14 14 10 6 8 11 10 11 14 13 12 12 12 10 8 7 6 5 5 5 5 4 4 4 4 2 1
23 23 22 21 20 21 22 23 22 20 18 16 13 10 9 10 10 8 9 11 13 14 14 13 13 16 17 15 13 13 10 11 16 19 18 15 13 12 11 8 6 8 12 16 18 18 18 19 19 19 18 15 13 12 12 14 16 16 15 12 5 3 6 10 8 9 12 14 14 14 11 7 5 6 7 8 8 7 6 7 8 6 3 1 2
25 25 25 24 23 22 22 21 20 20 18 16 14 12 11 11 10 10 9 9 10 11 11 8 8 14 18 16 14 13 11 10 14 19 21 19 15 14 13 10 8 9 14 19 21 20 21 22 21 20 19 17 15 14 13 15 16 17 17 10 4 5 6 6 5 8 14 18 17 13 9 6 6 8 9 11 11 9 8 8 8 6 5 4 4
25 25 25 24 23 21 20 20 20 19 18 17 16 15 14 13 13 12 11 10 10 11 11 11 12 15 17 15 13 13 13 12 12 14 19 21 18 14 13 12 11 11 12 17 20 22 24 24 22 21 19 18 17 16 14 14 14 14 14 7 3 3 4 7 11 14 16 17 13 9 7 8 9 10 11 11 10 8 7 8 7 6 7 9 10
23 22 21 21 20 19 19 20 20 20 21 21 21 20 18 16 15 15 13 11 10 10 11 12 13 14 15 14 11 9 10 12 10 9 13 17 17 16 15 13 12 12 12 14 17 21 24 24 22 21 20 19 18 17 15 14 14 14 13 8 4 4 6 10 14 14 13 12 11 9 10 12 13 14 14 12 8 7 7 7 6 7 8 8 7
20 18 19 19 18 17 17 18 19 22 23 23 24 24 22 20 18 16 15 13 12 11 12 12 12 11 12 12 10 8 7 10 11 9 10 14 16 16 16 15 14 13 13 14 17 21 23 23 21 20 18 18 18 18 16 15 15 15 13 8 6 9 12 14 15 14 13 13 13 14 15 15 14 15 15 11 7 6 7 6 5 5 5 3 3
19 18 19 20 19 18 17 17 18 20 20 21 23 24 23 22 20 18 16 14 14 14 13 13 12 11 10 9 9 10 10 10 10 10 10 12 13 13 13 13 13 13 13 15 18 21 21 21 20 18 17 17 17 16 15 14 14 13 12 10 11 15 16 15 15 14 13 13 14 14 15 14 13 13 11 8 7 7 7 6 6 6 6 7 9
18 17 17 18 17 17 17 17 17 17 16 17 18 18 19 20 21 20 18 16 16 15 15 15 13 12 11 10 9 9 10 10 10 10 11 12 13 13 12 11 12 14 15 17 20 21 20 19 18 17 18 19 18 16 15 13 13 14 14 15 16 16 14 13 13 13 13 14 14 15 14 13 12 11 9 8 9 9 9 9 9 9 10 12 12
20 18 18 18 18 17 16 16 16 16 16 16 16 15 15 16 16 16 15 15 16 16 16 16 14 11 10 10 9 9 9 9 10 11 13 13 13 13 13 14 14 15 15 17 19 20 19 18 18 19 20 20 19 17 15 13 15 18 19 19 18 17 16 15 16 16 16 16 16 15 12 10 10 10 10 10 10 9 8 8 9 10 10 10 10
22 22 22 22 23 22 21 20 19 18 18 17 16 15 14 13 13 13 14 15 17 17 17 17 15 13 12 11 11 10 10 10 11 11 12 13 13 13 16 18 17 14 13 13 16 17 18 18 19 20 20 20 19 17 16 16 18 21 21 20 20 20 19 18 18 17 17 17 15 13 10 9 10 11 11 10 9 8 8 8 8 8 9 9 9
21 21 21 21 22 21 20 19 19 19 19 17 16 15 15 14 14 15 15 16 17 18 18 18 17 16 15 14 13 13 13 13 14 14 14 15 14 15 17 19 17 14 13 13 14 16 17 18 20 21 20 20 19 18 18 19 20 20 20 21 22 21 19 18 17 17 16 15 13 11 11 10 10 10 10 10 10 9 8 8 8 9 9 9 9
20 20 19 19 19 20 19 18 18 17 17 16 14 14 14 14 15 16 16 15 15 16 15 15 16 18 18 17 17 17 17 17 17 17 17 15 14 14 17 18 17 16 15 15 16 17 18 19 20 21 20 20 19 19 19 20 20 21 21 21 20 18 16 16 16 15 15 14 12 11 11 10 10 10 11 11 11 9 9 9 9 8 8 9 9
23 21 19 18 18 19 20 19 17 16 15 14 13 14 15 16 16 17 17 16 15 15 14 14 16 19 21 20 19 19 19 19 18 17 16 15 14 15 15 16 16 17 17 18 19 21 22 21 21 20 20 20 20 21 21 21 21 21 21 19 17 16 15 14 14 14 13 12 11 10 9 9 8 9 10 11 10 10 10 10 10 9 8 8 9
23 21 20 19 19 20 19 18 17 16 16 15 15 16 17 18 17 18 18 17 17 17 17 17 18 19 18 17 16 16 18 18 18 17 16 15 15 14 15 15 16 18 20 21 22 22 23 23 22 22 22 22 22 21 20 20 20 20 19 18 17 16 15 14 14 13 12 12 13 12 11 11 9 9 9 9 9 9 9 9 10 9 8 8 7
19 20 19 19 18 19 18 18 18 17 17 16 17 17 17 16 16 17 18 18 18 17 16 16 16 14 13 12 13 16 18 18 17 16 16 16 16 16 16 17 19 20 22 22 22 23 23 23 23 22 22 22 21 20 19 19 20 20 20 19 18 17 16 14 14 13 13 13 12 12 11 11 11 10 10 10 10 10 10 10 9 8 7 5 5
16 17 18 17 17 18 18 18 18 17 17 17 17 17 17 16 15 15 16 16 17 16 15 15 15 12 11 12 14 16 18 19 18 18 17 17 18 18 18 18 19 20 21 22 22 23 23 23 23 23 22 21 20 20 20 20 20 21 20 19 18 17 15 14 13 13 13 12 12 11 10 10 10 11 11 11 10 10 9 9 8 8 6 5 4
14 14 15 15 15 16 16 17 16 16 16 16 16 16 15 15 14 15 15 16 16 16 16 16 15 13 11 12 13 15 17 18 18 18 18 17 18 18 18 18 18 18 18 19 21 23 24 24 24 23 22 20 19 18 19 20 20 20 19 18 17 17 16 14 13 12 12 11 11 11 11 11 11 11 11 10 9 9 9 7 6 6 5 5 4
15 15 15 16 16 16 15 15 15 15 15 15 16 15 15 15 15 15 16 16 16 16 16 17 16 14 13 13 13 15 16 16 16 16 16 16 17 17 16 16 17 17 17 18 20 22 24 24 23 21 19 17 16 16 17 18 17 17 16 15 14 14 14 13 12 11 11 11 12 12 12 12 12 11 10 9 9 9 9 8 7 6 5 4 3
14 14 14 15 15 15 15 15 17 17 17 16 16 15 14 14 15 15 15 16 16 15 15 16 16 16 15 14 14 15 16 15 15 16 16 16 16 16 16 16 17 18 19 19 20 21 22 21 21 20 18 16 15 15 15 15 14 14 14 14 13 13 12 11 10 11 12 13 14 13 12 10 10 9 9 9 8 8 8 7 7 6 5 4 4
13 13 13 13 14 14 14 14 15 15 15 14 14 13 13 13 14 15 15 15 15 15 15 15 15 15 14 14 14 15 15 15 16 16 16 16 16 16 16 17 18 19 20 21 21 20 20 21 22 22 20 18 17 16 15 14 14 13 14 14 14 14 12 11 11 11 12 13 14 13 12 10 10 10 10 9 8 8 7 6 5 4 3 4 5
13 13 13 12 12 13 12 12 12 12 12 12 12 11 12 13 14 15 15 15 15 14 14 13 13 14 13 13 14 14 14 15 15 15 15 16 16 16 17 18 19 20 21 22 22 22 22 23 23 22 20 18 18 18 17 15 14 14 13 13 13 13 13 13 14 13 13 13 13 13 12 12 11 10 9 8 7 7 6 6 5 4 3 4 5
13 12 12 11 11 11 11 11 12 12 12 12 12 12 12 13 14 15 15 15 15 14 13 13 13 13 13 14 14 14 14 14 15 15 15 15 16 17 17 18 20 21 22 23 23 23 23 22 21 20 19 18 18 18 17 16 15 14 13 12 12 12 13 14 15 14 13 12 11 11 11 12 11 10 8 7 6 6 5 5 5 5 4 4 4
13 12 11 10 10 10 10 11 12 12 11 11 12 12 13 13 13 13 13 13 13 13 12 12 12 13 13 14 14 14 14 15 15 15 15 15 16 17 19 19 21 22 22 22 22 22 21 21 21 20 19 19 17 16 16 15 14 12 11 11 11 12 12 13 13 13 12 12 12 12 12 11 10 10 9 8 7 5 5 5 5 5 4 4 4
13 11 10 9 9 9 9 9 10 10 10 11 12 12 12 12 12 11 11 11 11 11 11 11 11 12 12 13 14 14 14 15 15 15 15 16 17 19 20 20 21 22 22 22 21 21 21 21 20 20 19 17 16 14 13 12 11 10 10 10 11 11 12 12 12 12 12 11 11 11 10 9 8 9 9 8 7 5 5 5 4 3 3 3 4
11 10 10 9 9 9 8 9 9 10 10 10 10 10 10 10 10 10 10 10 10 10 10 11 11 11 12 12 13 13 13 14 15 16 16 17 18 19 20 20 21 22 22 21 21 21 20 19 18 17 16 14 12 11 11 10 10 11 11 11 11 11 12 12 12 11 10 10 9 9 9 8 8 8 7 6 6 5 4 4 3 3 3 3 3
9 10 10 10 9 8 8 8 8 8 9 9 9 9 9 9 9 9 9 9 10 10 11 11 11 11 12 12 12 13 14 15 16 16 17 18 18 19 20 21 21 21 21 21 20 19 18 17 15 14 12 10 10 10 10 11 12 12 12 12 12 11 11 11 10 9 9 8 8 9 9 9 9 9 7 6 5 4 4 4 4 4 4 3 4
Wind_Direction
176 176 176 175 176 170 156 154 169 184 191 191 190 188 182 176 179 182 182 182 183 183 184 188 190 191 194 196 199 204 210 217 219 222 224 229 235 238 242 248 252 258 259 245 225 247 251 241 236 238 230 220 214 203 202 208 206 205 216 229 237 242 222 181 112 284 217 180 162 168 167 164 165 173 182 183 189 198 198 212 236 241 242 246 252
175 176 176 176 175 161 152 162 177 185 189 186 185 188 182 175 180 185 187 187 186 185 185 188 190 190 192 198 203 208 214 219 221 221 221 226 232 236 240 244 247 255 260 255 230 233 239 232 229 227 210 205 207 200 196 204 206 206 214 219 222 234 228 206 156 122 219 139 125 145 155 156 158 175 186 182 188 198 197 212 233 239 252 250 246
173 175 177 177 168 152 153 170 182 187 189 184 183 186 181 176 181 189 192 190 190 189 187 189 191 191 193 201 208 213 216 220 220 219 220 224 229 234 239 241 243 246 247 244 234 239 242 223 209 207 193 189 196 198 194 197 196 199 209 211 209 213 219 220 215 177 156 155 140 143 154 160 157 167 179 176 183 196 198 204 210 216 231 231 243
173 174 176 175 162 148 156 172 181 187 188 184 183 184 183 180 181 187 192 193 193 191 186 189 193 192 193 199 209 215 218 221 221 220 222 225 229 238 244 243 242 243 242 236 226 230 234 209 182 175 173 175 182 187 183 177 177 193 206 204 201 203 211 218 217 194 148 161 182 159 154 160 155 156 168 174 185 193 194 192 192 222 234 227 235
174 175 173 170 157 149 159 173 178 184 187 184 184 184 184 182 179 182 189 194 195 191 186 190 194 192 193 202 213 217 218 221 223 222 225 230 235 245 254 250 243 244 242 233 217 193 193 192 183 175 173 174 171 172 176 170 167 171 174 182 191 194 194 186 183 179 121 146 193 174 143 150 159 172 199 215 206 200 215 223 230 266 251 214 215
173 174 169 163 154 150 161 173 177 182 186 185 185 184 183 182 181 182 186 190 192 190 187 189 190 191 197 210 219 221 222 224 225 225 227 233 236 242 259 259 241 230 214 203 189 167 166 176 186 188 185 176 164 165 172 164 154 138 121 131 159 167 164 150 145 149 117 131 182 176 150 143 158 185 218 229 205 191 221 233 224 233 244 249 253
171 169 163 157 154 153 161 170 173 177 183 186 186 185 185 184 183 184 184 186 188 187 185 184 188 196 202 212 220 224 225 223 224 226 227 231 231 234 250 237 191 176 173 165 149 156 165 171 182 188 185 177 168 168 168 158 151 146 132 126 136 149 158 158 158 167 168 171 181 178 172 172 174 180 204 223 196 182 224 238 217 208 217 234 238
168 164 158 155 156 157 161 166 171 174 179 183 183 186 189 185 183 184 186 186 184 182 179 177 186 201 209 213 218 223 225 223 224 226 227 228 222 216 210 176 161 144 139 144 145 151 159 164 171 179 184 185 180 173 167 159 153 156 161 157 151 155 164 169 174 183 188 199 213 187 170 171 183 200 226 233 183 172 261 280 270 232 215 221 225
162 158 155 156 157 159 161 164 168 170 173 179 183 188 191 186 183 185 187 186 182 178 177 176 185 204 216 215 215 218 222 223 221 216 213 215 207 187 158 146 148 138 134 141 146 147 152 156 160 167 171 173 176 175 174 171 165 168 177 179 169 163 162 162 170 185 198 205 219 203 168 168 189 205 215 216 198 201 262 264 261 261 257 231 217
158 154 152 157 158 159 160 160 163 165 168 175 182 189 190 186 186 186 179 178 178 177 179 180 185 201 215 216 211 211 215 219 219 210 200 195 188 174 156 144 139 140 142 143 141 137 142 148 153 162 167 167 170 174 176 175 175 177 176 178 180 174 170 168 172 189 206 205 211 199 172 182 197 194 197 205 203 206 227 234 225 262 299 268 190
158 155 154 158 158 158 159 158 159 161 165 171 177 185 188 187 191 189 179 176 176 177 180 181 185 199 212 214 208 205 211 217 222 219 207 191 176 162 156 160 155 147 144 142 139 136 139 148 149 154 163 166 165 166 169 170 172 171 164 167 178 175 164 144 154 177 205 208 219 212 195 207 211 200 202 202 192 183 184 181 141 237 283 279 168
158 157 157 160 160 160 159 155 155 159 167 172 176 183 187 188 192 190 185 183 182 183 181 177 191 207 210 208 206 206 211 217 225 232 228 207 181 154 153 167 161 149 143 142 143 141 141 148 150 152 159 163 165 168 169 167 166 165 156 159 171 175 134 79 80 80 56 30 351 226 213 223 217 212 208 193 176 165 167 172 140 237 285 297 147
157 158 160 161 161 159 156 155 156 162 171 176 178 183 187 188 190 189 187 185 186 186 175 169 198 216 208 203 205 206 211 216 223 232 233 212 190 162 147 156 156 152 149 146 147 146 143 145 149 156 165 167 171 175 175 175 177 173 158 152 171 204 208 196 37 53 57 31 32 50 56 107 115 89 146 172 159 143 142 154 199 252 288 71 122
156 160 160 161 161 157 157 160 160 159 165 169 173 181 186 187 188 186 183 183 186 183 168 171 206 216 208 204 203 203 210 214 217 228 228 203 186 163 148 151 153 154 153 150 150 151 150 149 148 155 165 168 173 177 176 180 184 179 165 154 165 194 206 222 246 219 61 36 60 72 71 83 91 85 104 138 131 115 118 140 183 221 218 136 127
158 160 161 162 162 160 160 162 159 153 154 161 168 175 179 182 184 181 179 184 187 178 171 188 211 213 208 204 196 196 204 205 210 224 202 181 169 153 148 152 151 150 149 148 149 148 149 152 152 154 159 163 171 171 168 173 172 163 153 142 143 153 164 195 214 199 94 68 81 91 85 85 91 92 102 121 119 108 111 130 148 161 149 131 127
157 160 164 163 162 161 159 159 159 156 156 162 167 170 173 180 182 177 175 181 183 177 182 202 212 208 202 197 189 190 193 193 202 193 171 165 157 146 147 149 145 144 144 144 145 146 151 159 161 162 160 165 174 168 157 162 162 159 155 142 141 151 138 114 123 132 105 80 78 84 83 79 84 88 95 116 126 125 126 124 129 134 133 149 146
154 160 165 164 163 162 156 155 161 164 164 167 169 171 175 180 180 178 176 176 177 184 196 205 207 200 193 190 189 190 186 185 193 175 164 159 150 142 145 145 141 141 142 143 147 153 164 174 174 171 166 171 181 176 164 163 161 163 159 138 126 129 116 100 103 89 81 74 66 69 67 59 65 71 79 103 117 130 126 105 100 111 76 147 145
156 162 166 164 161 160 157 156 160 166 172 176 176 175 177 178 179 181 175 171 180 194 198 200 198 192 186 186 193 194 187 188 186 171 162 156 145 140 146 146 143 144 146 148 154 162 169 170 168 167 165 171 182 183 177 171 167 176 169 140 114 110 114 116 117 92 72 63 54 57 55 51 68 81 95 103 99 115 112 92 94 106 70 71 125
159 159 163 163 158 159 161 161 161 166 175 183 182 177 176 178 178 175 171 177 194 198 192 190 187 183 182 187 198 196 184 183 179 168 161 156 145 140 148 152 151 153 154 153 158 164 162 153 154 156 159 173 182 178 181 181 180 187 176 146 118 115 125 133 130 115 102 94 86 86 84 82 92 100 101 99 89 93 102 94 95 100 76 71 108
155 156 159 157 155 157 159 160 163 164 168 176 182 179 179 183 181 179 183 192 196 188 180 180 176 172 175 182 188 186 177 178 176 168 165 165 152 133 137 151 158 162 162 158 158 161 158 152 154 152 149 174 173 169 179 191 185 174 170 151 136 132 127 124 122 115 111 105 95 91 87 83 91 98 94 90 84 78 82 83 81 86 79 70 79
151 156 158 153 152 155 155 156 161 160 157 162 169 173 176 181 184 185 188 188 183 173 171 173 166 163 168 171 170 170 172 177 176 173 175 176 163 133 119 134 154 164 169 168 159 155 157 158 158 163 175 183 170 169 180 190 164 160 168 161 150 140 132 132 127 113 108 108 102 98 94 85 85 89 79 74 76 70 69 72 70 75 80 72 72
151 154 155 153 152 152 150 149 152 154 151 153 158 163 167 171 174 177 177 174 167 163 165 163 156 153 155 156 159 162 165 177 179 181 184 184 178 155 121 128 152 164 178 180 158 146 151 161 162 173 186 175 168 168 172 171 152 154 161 155 143 132 131 142 143 129 124 126 120 112 108 100 96 94 81 71 72 71 72 76 75 72 71 67 72
153 154 154 151 145 142 142 143 146 150 148 148 151 152 153 157 162 167 166 161 156 154 155 153 149 149 147 144 146 145 140 168 183 187 192 191 186 173 138 135 160 171 188 189 162 149 154 163 161 169 174 169 168 163 153 141 136 134 135 135 132 129 132 147 152 143 135 132 125 122 129 130 121 114 106 94 86 82 80 80 78 70 60 64 75
148 144 137 129 126 129 131 132 135 135 136 140 143 140 141 148 157 163 163 158 155 152 152 151 148 146 140 133 132 135 138 158 185 194 199 198 191 179 157 142 157 173 187 180 164 162 171 168 162 167 168 167 167 162 149 133 128 132 136 134 134 134 136 143 147 139 127 126 133 143 146 137 131 129 127 119 110 107 101 90 81 73 67 82 97
120 116 110 111 118 122 120 117 120 124 128 133 134 134 136 140 150 162 165 160 156 153 154 157 153 145 139 132 130 137 147 163 187 199 202 201 193 181 170 153 145 157 167 165 165 169 171 164 162 164 166 169 169 163 152 137 134 141 143 137 136 142 148 150 147 144 146 155 163 153 129 116 124 134 136 131 126 128 126 109 102 123 131 117 116
105 105 104 107 111 112 107 103 103 107 112 118 123 131 142 145 149 160 162 160 159 157 161 166 155 143 140 139 139 143 152 170 187 196 202 202 192 181 177 165 136 123 131 149 161 164 159 159 163 162 163 168 168 160 151 143 140 142 142 140 141 154 167 161 154 157 163 163 157 136 112 101 111 126 134 137 127 129 144 126 104 136 176 191 233
100 101 103 103 102 102 102 100 101 101 102 105 109 117 137 154 159 156 153 160 161 156 158 166 159 147 142 143 147 151 157 173 183 188 196 201 194 183 179 169 140 125 131 144 154 156 155 159 160 158 157 157 155 153 149 144 143 148 153 152 128 93 153 162 172 182 168 145 130 124 119 119 132 132 136 135 115 97 107 107 92 94 127 197 258
98 98 101 101 99 101 104 105 106 105 103 107 111 111 123 143 148 138 134 142 145 139 138 145 154 150 145 144 150 155 159 174 185 189 194 198 194 185 176 166 154 146 146 151 154 154 156 157 154 152 152 149 144 145 145 145 150 158 165 158 78 68 138 153 146 149 141 128 121 123 131 143 141 122 113 108 98 87 87 89 84 81 74 45 56
99 97 100 99 98 101 105 108 110 110 109 110 108 105 114 131 136 131 123 124 132 137 132 125 130 140 142 146 158 165 169 178 187 192 197 200 200 196 186 175 170 169 166 161 157 154 153 153 151 149 148 145 143 143 145 149 157 167 173 165 87 89 148 126 109 116 123 123 121 125 137 136 126 118 110 98 90 88 82 77 76 72 57 48 56
98 98 99 98 98 100 103 106 110 113 116 115 109 102 102 111 119 120 115 116 128 139 136 127 128 139 147 150 159 170 176 177 173 177 193 200 204 205 203 196 190 183 174 167 164 161 156 152 152 153 151 149 149 150 154 159 162 167 174 173 156 160 154 127 116 113 109 106 105 112 126 122 112 112 114 104 92 90 85 76 70 61 53 53 53
95 95 97 100 102 104 107 110 113 113 115 116 115 109 101 95 96 100 104 111 117 121 125 124 126 141 153 150 141 133 142 159 162 162 173 187 194 198 201 205 204 195 185 178 173 168 160 154 152 153 152 151 151 154 160 164 164 167 173 170 151 148 139 123 115 109 102 102 107 114 119 115 106 106 110 108 102 100 91 79 70 60 48 50 61
92 95 100 105 108 110 113 116 116 116 115 114 114 113 106 96 90 87 92 103 107 106 107 109 111 122 133 135 129 120 121 140 158 162 166 175 183 187 189 194 194 192 191 185 173 165 160 156 153 152 152 152 152 153 155 156 159 166 167 149 130 131 130 119 112 110 112 119 125 121 116 113 111 110 109 102 92 88 78 63 58 53 45 50 59
95 102 108 112 114 117 123 126 125 126 125 120 115 111 107 103 99 92 89 94 100 102 102 101 101 105 111 114 119 120 125 141 158 166 169 169 170 169 166 168 174 178 181 177 167 161 160 157 154 156 158 155 151 149 149 149 152 154 147 133 123 121 122 121 120 121 128 134 129 118 111 111 115 116 110 98 89 82 72 60 54 53 51 52 53
91 94 97 96 95 96 104 112 116 116 116 115 113 110 109 109 108 102 95 91 89 88 89 91 94 100 105 109 111 115 125 139 151 162 169 167 165 163 157 152 156 164 170 170 165 161 160 158 156 157 157 152 149 148 149 151 149 141 131 124 121 120 121 125 128 128 129 127 117 111 111 112 110 106 101 95 90 84 76 66 61 61 61 56 50
83 83 85 85 82 81 85 90 93 94 96 98 102 106 109 107 104 103 101 95 87 81 78 81 85 91 99 104 108 112 120 127 135 147 153 151 152 156 150 142 141 147 156 162 162 161 160 157 154 152 150 148 148 148 146 144 142 135 127 123 123 123 123 124 124 123 123 119 113 112 112 105 99 98 96 94 93 89 80 72 72 74 72 64 57
78 78 79 81 81 81 83 86 87 89 91 93 97 102 104 101 99 99 98 93 90 86 82 82 85 91 95 98 101 106 110 113 116 121 124 129 138 144 138 131 129 131 135 142 149 152 152 151 149 148 147 147 147 145 140 135 132 130 128 126 126 126 125 124 124 124 122 117 112 110 106 99 96 100 102 100 96 91 83 78 80 83 78 72 68
76 76 76 78 80 81 82 84 87 91 94 97 98 99 97 97 100 101 98 94 92 91 88 89 92 94 95 98 102 107 109 108 108 109 110 116 125 130 128 126 127 128 130 135 141 142 140 142 144 145 143 141 141 139 135 130 125 125 126 125 125 124 124 126 128 126 120 113 109 108 107 105 104 108 112 110 103 97 94 90 87 83 77 77 77
76 80 81 82 84 88 88 88 89 91 93 93 94 96 97 97 99 100 98 96 95 95 96 97 98 99 100 103 105 108 109 109 108 107 107 112 117 120 124 128 131 132 134 139 142 140 137 138 141 141 140 138 137 135 132 129 127 127 126 124 124 123 123 125 124 120 115 110 109 110 112 112 112 114 117 116 113 108 107 102 92 79 71 73 74
73 76 81 84 85 88 90 90 90 90 89 88 89 92 95 95 94 95 96 96 97 97 97 97 100 103 104 104 105 107 107 105 105 106 108 112 117 120 124 126 128 130 133 136 138 137 137 139 142 142 142 140 137 133 131 131 131 132 131 129 127 125 123 121 119 118 118 117 116 115 114 111 110 111 113 115 115 111 107 103 94 82 72 69 64
72 73 77 81 82 83 85 86 86 86 88 89 89 89 91 92 94 97 99 100 100 100 99 99 101 103 103 105 111 112 108 103 102 105 108 108 110 115 120 121 123 127 131 133 135 135 136 138 140 140 139 138 135 133 134 136 138 139 139 136 131 127 124 123 121 121 122 119 117 118 119 118 119 117 111 106 102 96 89 87 89 86 81 76 70
73 73 73 75 78 80 81 81 81 83 85 87 88 90 91 93 97 100 103 103 102 101 99 99 101 103 107 114 118 115 110 106 105 104 104 104 106 108 112 115 119 124 126 128 131 134 135 136 138 137 135 134 133 134 137 141 144 144 142 139 135 132 131 132 131 130 128 126 126 126 125 123 119 112 105 99 97 97 93 91 93 92 82 70 62
71 71 69 68 70 73 74 76 78 80 81 83 87 90 92 95 99 104 106 106 106 105 103 102 102 105 112 117 116 111 108 108 106 102 101 103 104 105 106 110 114 118 122 125 130 134 136 136 135 133 130 130 133 138 143 147 147 144 141 139 139 141 143 145 145 143 141 138 135 128 120 115 111 108 109 111 111 107 101 95 93 90 80 71 57
73 72 71 69 68 68 71 75 79 81 83 86 89 91 93 97 101 105 107 107 109 108 107 107 109 112 116 119 116 110 107 106 106 106 106 107 107 106 107 110 113 119 126 132 135 136 136 134 131 129 129 131 135 139 141 141 139 137 136 138 142 146 147 146 144 142 137 131 124 117 113 117 121 122 123 125 123 117 111 104 94 82 70 63 50
72 72 71 71 72 73 75 78 83 86 89 90 91 92 94 97 100 103 106 107 108 107 106 109 112 112 111 111 108 105 103 104 105 106 107 107 108 109 112 117 123 128 133 137 138 137 136 134 131 129 127 126 125 126 129 133 136 138 140 142 140 138 137 136 135 137 136 130 124 122 123 127 128 123 115 108 108 110 110 105 98 90 80 60 38
69 71 71 70 72 76 78 81 84 87 88 89 90 92 95 97 102 106 107 107 107 107 107 111 113 112 109 106 105 105 105 105 105 106 106 107 110 115 120 126 130 133 135 136 137 137 136 133 129 126 122 120 120 124 131 140 145 147 149 148 142 135 133 132 129 130 132 130 128 128 127 122 115 110 107 108 109 108 102 96 94 93 78 48 33
72 72 73 73 73 74 76 80 83 84 85 88 92 94 95 98 104 107 107 107 110 112 111 111 111 110 108 107 108 108 108 107 110 114 116 115 117 121 126 129 131 131 131 130 129 129 129 128 127 126 125 124 123 124 126 130 135 140 143 145 142 139 138 135 133 133 137 140 141 140 136 130 124 122 122 123 124 117 109 106 105 96 68 44 34
77 74 76 78 79 79 79 80 83 85 85 87 92 95 98 103 108 110 109 108 110 111 110 109 109 109 109 108 109 110 111 111 114 119 121 120 121 123 126 129 129 126 125 125 126 126 127 127 127 127 126 123 122 122 124 126 131 136 140 143 145 147 148 147 146 146 147 145 142 137 131 128 126 123 116 105 95 87 80 79 80 77 67 54 35
74 75 77 79 83 88 90 90 90 90 88 90 95 100 103 107 111 112 111 110 110 111 112 112 111 111 112 111 110 111 113 114 114 115 116 118 119 121 122 124 124 124 124 126 128 130 130 129 130 131 131 132 134 137 140 141 142 143 145 148 150 152 153 153 151 149 146 142 136 131 130 132 134 133 128 120 113 109 104 94 83 69 55 40 20
74 77 80 81 83 88 93 95 97 99 101 104 106 106 107 110 114 116 115 112 110 110 112 113 114 114 114 113 112 112 114 115 114 114 117 118 119 120 122 124 127 130 131 131 134 136 137 137 139 141 143 146 150 151 150 149 147 146 145 147 149 151 152 150 146 143 142 142 141 141 144 146 142 140 139 135 130 125 115 102 91 62 32 21 15
83 83 84 86 87 87 91 96 101 107 112 114 113 112 113 115 118 120 119 115 111 111 112 113 114 114 116 118 118 117 117 116 116 117 120 122 123 125 128 131 133 135 137 138 140 143 143 144 147 149 151 154 155 152 149 147 146 144 143 143 145 147 147 144 143 143 143 143 143 145 143 132 119 114 115 114 114 114 106 97 92 62 32 7 349
89 95 95 94 91 88 91 97 101 105 110 114 118 121 124 126 127 127 125 120 117 117 118 118 118 120 121 122 122 122 120 120 120 121 124 127 129 132 135 136 137 139 141 142 143 144 146 148 152 153 153 152 148 144 143 143 143 141 140 139 141 144 145 143 142 141 139 136 135 136 134 125 116 115 113 101 91 86 76 67 61 45 30 360 330
Height
715 719 723 727 731 736 739 740 741 741 740 743 748 752 755 758 760 761 762 764 765 767 770 772 773 775 777 778 779 780 780 781 782 783 784 784 785 786 786 787 788 788 789 790 793 793 792 791 791 791 793 796 797 798 799 801 800 800 801 802 803 803 803 803 804 805 805 805 805 806 808 811 813 816 817 819 821 822 824 826 826 827 827 828 829
712 716 721 725 730 734 735 736 737 737 738 742 747 751 754 757 758 760 761 762 764 765 767 770 772 774 776 777 778 779 779 780 781 782 783 783 784 785 785 786 787 787 786 787 790 791 790 790 791 791 793 795 797 797 797 798 799 799 800 801 802 802 802 803 804 805 805 806 806 807 809 811 813 815 816 818 820 822 824 825 825 826 827 827 828
710 714 719 723 728 731 731 733 735 735 737 742 746 749 752 754 756 758 760 762 763 764 765 768 770 772 774 776 777 778 779 780 780 781 781 782 783 784 784 785 785 785 785 786 788 789 789 790 792 792 793 794 796 796 796 798 798 799 800 801 801 802 802 803 804 805 806 806 808 808 809 811 813 814 816 817 819 822 823 824 824 826 827 827 827
708 712 717 721 725 727 728 731 733 734 737 741 743 747 750 753 755 757 760 762 763 763 764 766 768 770 772 774 776 777 778 778 779 779 780 781 782 783 783 783 784 784 784 785 786 786 787 788 790 791 792 793 794 795 796 797 797 798 800 801 801 802 802 803 803 804 805 806 808 809 810 811 813 814 816 817 819 821 823 823 824 826 827 827 827
706 710 715 719 722 724 726 729 731 733 736 739 742 746 749 751 754 756 759 761 762 762 763 764 767 769 771 773 775 776 777 777 778 778 779 780 780 781 781 782 782 782 783 784 784 784 785 787 788 790 791 792 793 795 796 797 797 798 799 800 801 802 802 802 802 803 804 806 808 809 810 811 812 814 816 818 819 821 823 824 825 827 828 826 827
704 708 712 716 718 721 724 727 730 732 735 737 741 744 747 750 752 754 756 758 760 761 762 763 765 767 770 772 774 775 776 776 777 777 778 778 779 780 780 780 780 781 782 782 783 783 784 786 788 789 790 791 793 795 796 797 797 797 799 800 801 801 801 802 802 802 803 806 808 809 810 811 812 814 816 817 818 819 821 823 824 826 827 827 827
702 706 710 712 715 719 723 726 729 732 734 736 739 742 744 747 749 751 752 754 757 760 761 761 763 766 769 771 773 774 775 775 776 776 776 777 778 778 779 779 778 780 781 781 782 783 784 785 787 788 790 791 793 794 795 795 795 796 798 800 801 801 801 801 802 802 803 805 807 808 808 810 811 813 815 817 818 818 820 822 823 824 825 826 826
700 704 707 710 713 717 721 724 728 731 733 735 738 740 742 744 747 750 752 754 756 758 759 760 763 766 769 771 773 774 774 775 775 775 775 776 777 777 777 777 778 779 780 781 782 783 784 785 786 788 790 791 792 793 793 794 795 797 798 799 800 801 801 802 803 803 804 805 807 807 807 808 810 812 814 815 816 818 820 822 823 824 824 824 825
697 701 704 708 712 716 720 724 727 730 733 735 737 739 742 745 749 752 753 754 755 756 757 760 763 767 770 771 772 773 773 774 773 774 774 775 775 776 776 776 777 779 780 781 782 783 784 785 786 788 790 791 792 793 793 794 795 796 798 798 799 800 801 802 803 803 804 805 805 806 806 807 809 811 813 814 815 817 819 821 822 823 824 824 824
695 699 702 706 711 715 719 723 727 730 733 734 736 739 742 746 749 751 753 754 755 756 758 760 763 767 770 771 772 773 773 772 772 773 774 773 773 774 775 776 777 779 780 781 782 783 785 786 787 788 790 791 792 793 794 795 796 796 797 798 799 800 801 801 801 803 804 804 804 805 805 807 808 809 811 813 814 816 818 820 820 822 823 823 824
694 697 701 705 710 714 718 723 727 730 732 734 737 739 743 746 748 750 751 752 754 756 758 760 764 768 771 772 772 772 771 772 772 773 773 773 773 773 775 776 777 778 780 781 782 783 785 786 787 788 790 791 792 794 795 796 796 797 797 798 800 801 801 801 802 803 804 804 804 805 805 806 807 808 809 811 812 814 816 818 819 821 822 822 823
693 696 700 705 709 713 718 722 726 728 731 733 736 738 741 744 747 749 750 751 754 756 756 758 763 769 771 772 772 771 771 771 772 772 772 772 772 773 775 776 776 778 779 780 782 783 785 786 787 789 790 791 793 794 796 797 798 798 798 798 800 801 802 802 803 803 804 805 805 805 806 806 807 807 808 809 810 812 814 816 819 820 821 821 821
692 696 700 704 708 713 716 720 723 725 728 731 733 735 737 741 744 747 749 752 755 756 754 755 764 770 772 772 771 770 771 771 771 772 772 772 772 773 774 775 776 777 779 780 782 783 785 786 788 789 790 791 793 794 796 797 798 799 799 800 801 802 802 803 803 804 805 805 806 805 805 805 806 806 807 808 809 811 813 816 818 820 821 821 821
692 696 700 704 708 712 715 718 721 724 728 731 734 735 737 740 743 746 749 751 754 754 752 756 765 771 772 771 771 770 770 770 770 770 770 771 772 773 774 775 775 777 779 780 782 783 785 786 787 788 790 791 793 794 795 797 799 800 800 801 802 803 803 803 804 805 805 805 805 806 806 806 807 807 808 808 809 811 813 815 817 819 821 821 822
693 696 699 703 707 710 713 716 720 724 727 731 733 735 738 741 743 745 747 750 752 752 752 758 767 771 771 771 769 769 770 769 769 769 769 770 771 772 773 774 776 777 779 780 782 783 785 786 787 788 790 791 793 794 795 797 798 800 801 802 802 803 804 804 805 805 806 805 806 806 806 807 808 809 809 810 811 812 814 815 817 819 821 822 823
693 696 699 702 705 708 711 714 718 722 725 728 731 734 737 740 742 744 746 750 752 753 755 762 768 769 770 769 768 769 769 768 768 768 768 769 771 772 773 775 776 778 779 781 782 783 785 786 787 788 790 791 793 794 796 797 798 800 801 802 802 803 804 805 806 806 806 806 806 807 807 808 810 810 811 811 812 813 814 815 817 819 821 822 823
693 696 698 701 704 707 710 713 717 721 724 726 729 732 735 738 741 744 746 749 751 754 759 765 768 768 769 768 768 768 767 767 767 767 768 769 770 771 773 775 777 779 780 781 782 783 785 786 787 788 789 791 793 794 796 797 798 799 800 801 802 803 805 806 807 807 807 807 807 808 808 809 810 811 812 812 812 813 814 816 818 819 821 822 823
693 696 698 700 703 706 710 713 717 719 722 724 727 731 735 738 742 743 744 745 750 756 762 765 766 767 767 767 767 766 766 766 766 766 767 769 770 771 773 775 777 779 781 782 783 783 785 786 787 788 789 791 793 794 796 797 798 799 800 801 801 803 805 806 807 807 808 808 808 808 809 810 811 811 812 813 813 813 815 817 819 820 821 822 823
692 695 697 700 703 706 709 713 716 718 721 724 727 730 734 738 740 742 743 747 754 759 761 763 764 765 766 766 765 765 764 764 765 766 767 768 769 771 773 775 777 779 781 782 783 784 785 786 787 788 789 792 793 794 796 797 798 799 800 800 801 804 806 807 807 808 808 808 808 809 810 811 811 812 813 814 815 816 817 819 819 820 822 823 824
692 694 697 700 702 706 709 713 716 718 721 724 727 730 732 735 739 743 747 753 757 758 759 761 763 764 764 764 763 763 763 764 765 766 767 768 769 770 772 774 776 778 780 781 783 784 785 786 787 788 790 792 793 794 796 797 797 798 799 800 801 803 805 807 807 808 808 809 809 810 811 812 813 814 815 816 817 818 819 820 821 821 822 823 824
692 695 697 700 703 706 709 713 716 719 722 725 728 731 734 737 741 746 750 753 755 755 757 759 761 761 762 762 762 762 762 763 765 766 767 768 770 771 772 773 776 778 779 781 782 783 785 786 787 789 790 792 793 794 795 797 797 797 798 799 800 803 805 807 808 809 809 810 811 812 813 814 815 816 817 817 818 820 820 821 822 822 823 824 824
693 695 698 701 704 707 710 713 716 719 721 724 728 732 735 738 741 744 747 749 751 753 756 757 758 759 760 761 761 761 761 763 765 766 767 768 770 771 772 773 775 777 779 780 781 783 785 786 787 789 790 792 793 794 796 797 797 798 798 799 800 803 805 807 808 809 810 811 812 813 814 815 816 817 818 819 820 821 821 822 823 823 824 824 825
694 696 699 702 704 707 710 713 716 719 721 724 728 731 734 737 740 742 745 747 749 752 754 755 757 758 759 759 760 760 761 763 765 766 767 769 770 771 772 774 775 776 778 779 780 782 784 785 787 789 791 792 794 795 797 798 799 799 800 801 802 804 806 807 809 810 811 812 813 814 814 815 816 817 819 820 821 822 822 823 824 824 825 825 826
694 697 700 702 705 708 711 714 717 719 722 725 728 731 734 737 739 741 743 745 747 749 751 753 755 756 757 758 759 759 761 764 765 766 768 769 770 771 772 774 775 776 777 778 778 780 783 785 788 790 791 793 794 796 798 799 800 801 802 803 804 805 807 808 809 810 811 813 813 814 814 815 816 818 819 820 821 822 823 823 824 824 825 826 826
695 698 701 704 707 710 713 716 718 720 723 726 728 731 734 736 738 741 742 744 746 747 749 751 753 754 756 757 758 759 761 763 765 766 768 770 771 772 773 774 775 776 777 777 778 780 783 785 788 790 792 793 795 797 798 800 802 803 804 805 806 807 808 808 809 810 811 812 813 814 815 815 817 818 819 820 821 822 823 824 824 825 825 826 827
697 700 703 706 709 711 714 717 719 721 724 726 728 731 733 736 738 740 741 743 745 746 748 750 751 752 754 757 758 760 761 762 764 766 768 769 770 771 772 774 775 776 777 778 779 781 783 785 788 790 792 794 796 797 799 800 803 805 807 807 808 808 809 809 809 810 811 812 813 814 815 816 817 818 819 820 822 823 824 824 825 825 826 826 827
699 702 706 708 711 713 715 718 720 722 725 727 730 732 734 736 738 740 741 743 744 745 747 749 750 751 753 756 758 760 761 762 762 764 767 768 770 771 772 773 775 776 777 779 780 782 784 786 788 790 792 794 796 798 799 800 802 805 807 808 808 808 809 809 810 810 810 811 813 814 815 817 818 819 820 821 823 823 824 824 825 826 827 827 827
702 705 708 711 713 716 718 721 723 724 727 730 732 734 736 737 739 740 742 743 744 745 746 748 750 751 753 755 758 759 761 762 762 763 765 767 769 770 771 773 775 776 778 779 780 782 784 786 789 791 792 794 796 798 800 802 803 804 806 807 808 808 809 810 810 810 810 811 812 814 816 817 819 820 821 822 823 823 824 824 825 826 826 826 827
706 709 711 714 717 719 721 723 725 726 729 732 734 736 737 738 740 741 742 743 745 746 747 748 750 752 753 756 758 759 760 761 762 763 764 766 768 770 771 773 775 776 778 779 780 782 784 786 789 791 792 794 797 799 801 803 804 805 806 807 808 809 809 810 811 811 811 811 813 815 816 818 819 820 820 822 823 823 824 825 825 826 826 826 827
710 713 715 717 720 722 724 726 728 729 732 733 735 738 739 740 741 742 743 745 746 747 748 749 751 752 754 755 756 757 758 760 761 763 765 766 768 769 771 772 774 776 778 780 781 782 784 786 788 790 791 794 796 798 800 802 804 805 806 807 808 809 809 810 811 811 812 813 814 816 817 819 819 819 820 822 823 824 825 825 826 826 826 826 827
713 715 718 720 723 725 727 730 731 733 735 736 737 739 741 743 744 744 745 746 746 747 749 750 752 753 754 755 755 756 758 760 762 764 765 766 767 768 770 771 773 775 777 779 781 783 784 786 789 791 792 794 796 798 800 802 803 804 806 807 808 809 809 810 810 811 813 814 817 818 818 819 819 820 821 823 824 824 825 826 826 826 826 826 827
716 719 721 723 725 728 730 732 734 736 737 739 739 740 742 744 746 747 748 748 748 749 751 752 753 754 755 756 756 757 758 761 763 764 765 766 767 768 769 771 772 774 776 778 780 783 785 787 789 791 793 795 797 798 800 802 803 805 806 807 808 808 809 810 811 812 814 816 818 819 819 819 821 822 822 823 824 825 825 826 826 826 826 827 827
720 722 724 726 728 730 732 734 736 738 739 741 742 743 744 746 747 749 750 751 751 752 753 754 755 756 757 758 759 759 760 763 764 766 766 767 767 768 770 771 772 774 776 778 780 783 786 788 790 791 793 795 798 799 801 802 804 806 807 807 808 809 810 811 812 814 816 817 818 819 820 821 822 823 823 824 824 825 825 826 826 826 826 827 827
723 725 726 728 729 731 733 735 737 739 740 742 744 745 747 748 749 750 752 752 753 754 755 755 756 758 759 760 761 762 763 764 765 767 767 768 768 769 770 772 774 776 777 779 781 783 785 788 790 791 793 796 798 800 802 803 805 806 807 808 809 810 812 813 814 816 817 818 819 820 821 822 823 823 824 824 824 825 826 826 827 827 827 828 829
726 727 728 730 731 733 735 737 739 740 742 743 745 747 749 750 751 752 753 754 755 756 757 758 758 759 760 761 762 764 765 766 767 768 768 768 769 770 771 773 775 777 779 781 782 784 786 788 790 792 794 796 798 800 802 804 805 806 807 808 810 811 813 815 816 818 819 819 820 822 823 823 823 823 824 824 825 826 827 827 828 828 828 829 830
729 730 732 733 734 736 738 739 741 743 744 746 748 749 750 752 753 753 755 756 757 758 760 760 761 762 763 764 765 766 767 768 769 770 770 770 771 772 773 775 777 779 781 782 784 785 787 789 791 793 795 797 799 801 803 805 806 807 807 809 810 812 814 816 818 819 820 821 821 822 823 824 824 824 825 825 826 827 828 829 829 829 829 830 830
733 733 735 736 738 739 741 742 744 746 747 749 750 751 752 753 754 755 756 758 759 760 762 763 764 764 765 767 768 768 769 770 771 771 772 772 773 774 775 776 778 780 782 783 785 787 789 791 793 795 796 798 800 802 803 805 806 807 809 810 812 814 816 817 819 820 821 821 822 823 824 825 825 825 825 826 828 828 829 829 830 830 831 831 831
736 737 738 740 741 742 743 745 747 748 749 750 751 752 753 754 754 756 758 759 761 762 764 765 766 767 768 770 771 771 771 772 772 773 774 775 776 777 777 778 780 781 782 784 786 787 790 792 795 796 797 799 801 802 804 805 807 809 811 813 814 816 817 819 820 821 822 823 824 825 825 826 826 826 826 827 828 829 829 830 830 831 831 832 832
741 741 742 744 744 745 747 748 749 750 751 752 753 753 754 755 756 758 760 761 763 765 766 768 769 770 771 772 773 773 773 774 774 776 777 778 778 779 779 780 781 782 784 786 788 789 791 793 795 796 798 800 801 803 805 806 808 811 813 814 816 817 818 820 821 822 823 824 825 825 826 827 827 827 827 828 829 829 830 831 831 831 832 833 833
744 745 747 747 748 749 750 750 751 752 753 753 754 755 756 757 759 760 762 764 766 767 769 770 771 772 773 774 774 774 775 776 777 778 779 779 780 781 782 783 783 785 786 788 789 791 793 794 796 798 800 801 803 804 806 808 810 812 814 815 816 818 819 821 822 823 823 824 825 826 827 827 827 827 828 829 830 830 831 831 832 832 833 833 833
747 748 749 750 750 751 752 752 753 754 755 755 756 757 758 760 761 763 764 766 767 769 770 772 772 774 775 775 775 776 776 777 779 780 781 782 782 783 784 785 786 788 789 790 791 793 794 796 798 800 801 803 805 806 808 809 811 812 814 815 817 818 820 822 823 823 824 825 826 826 827 827 828 828 829 830 831 831 832 832 833 833 833 834 834
750 751 751 752 752 753 754 755 756 756 757 758 758 759 761 762 763 765 766 767 768 770 771 772 774 775 776 777 777 778 778 780 781 782 783 784 785 786 787 788 789 790 792 793 793 795 796 797 799 801 802 804 806 807 809 810 812 813 815 816 818 819 821 822 823 824 824 825 826 827 827 828 829 829 830 831 831 832 832 833 833 834 834 834 834
752 753 753 754 755 755 756 757 758 758 759 760 761 762 763 764 765 766 767 768 770 771 772 774 775 776 777 779 779 780 781 782 783 784 785 786 787 788 789 790 791 792 793 794 796 797 798 800 801 803 805 806 808 809 811 812 814 815 816 817 819 820 821 822 823 824 825 826 827 827 828 829 829 830 830 831 831 832 833 834 834 834 834 834 834
754 755 755 756 757 757 758 759 760 760 761 762 763 764 765 766 767 768 769 770 772 773 774 776 777 778 779 780 781 781 783 784 785 786 787 788 789 790 791 792 793 793 795 796 798 799 800 802 803 805 807 808 810 812 813 814 816 817 818 819 820 821 822 823 823 824 825 826 827 828 828 829 830 830 831 831 832 833 833 834 834 834 835 835 835
756 757 758 758 759 760 761 762 762 763 763 764 765 766 767 768 769 770 771 773 774 775 776 778 779 780 781 782 782 783 784 785 786 787 788 789 790 791 792 793 794 795 796 798 800 801 802 804 805 807 808 810 812 813 814 815 817 818 819 820 821 822 822 823 824 825 826 826 827 828 829 829 830 831 832 832 833 834 834 834 835 835 835 835 835
758 759 760 760 761 762 763 764 764 765 765 766 767 768 769 770 771 772 773 774 775 777 778 779 780 781 782 783 784 785 785 786 787 788 789 790 791 792 793 795 796 797 799 800 802 803 805 806 807 808 810 811 813 814 816 817 818 819 820 821 821 822 823 824 825 826 826 827 827 828 829 830 831 831 832 833 833 834 834 835 835 835 835 835 835
759 761 762 763 764 765 765 766 766 767 767 768 769 770 771 772 773 774 775 776 777 778 779 780 781 782 783 784 785 786 787 788 789 790 791 793 793 794 795 797 798 799 801 802 804 805 806 808 809 810 811 813 814 815 816 817 818 819 820 821 822 823 823 824 825 826 826 827 828 829 829 830 831 832 833 833 834 834 834 835 835 835 835 835 835
761 762 764 765 766 767 767 768 768 769 769 770 771 772 773 774 775 776 777 778 779 780 781 782 783 784 785 786 787 787 789 790 791 792 793 794 795 796 797 799 800 801 803 804 805 807 808 809 810 811 812 814 815 816 817 818 819 820 820 821 822 823 824 825 826 826 827 828 828 829 830 830 831 832 833 833 834 834 835 835 835 835 835 835 835
763 765 766 767 767 768 769 769 770 770 771 772 773 774 775 776 777 778 779 780 780 781 782 783 784 785 786 787 788 789 790 791 792 793 795 796 797 798 799 800 802 803 804 805 806 808 809 810 811 812 813 814 816 817 818 819 819 820 821 822 823 824 825 825 826 827 828 828 829 829 830 831 831 832 833 833 834 834 835 835 835 835 835 835 835
765 766 767 768 769 769 770 770 771 772 772 773 774 775 776 777 778 779 780 781 781 782 783 784 785 786 787 788 789 790 791 792 793 795 796 797 798 799 800 801 803 804 805 806 807 808 810 811 812 813 814 815 816 818 819 819 820 821 822 823 824 825 825 826 827 827 828 829 829 830 831 831 832 832 833 834 834 835 835 835 835 835 835 835 834
766 766 767 768 769 770 771 771 772 773 773 774 775 776 777 778 779 780 781 782 782 783 784 785 786 787 788 789 790 791 792 793 794 796 797 798 799 800 801 802 803 804 806 807 808 810 811 812 813 814 815 816 817 818 819 820 821 822 823 824 825 826 826 827 828 828 829 829 830 831 831 832 832 833 833 834 834 834 834 835 835 835 835 835 834